DW9330 Weather Reports


time (UTC)temp
C
wind
direction
speed
KPH
gust
KPH
rain 1hr
cm
rain 24hr
cm
rain mn
cm
humidity
%
barometer
mb
20260510051540 11 190 0.0 3.2 0.00 0.23 0.00 93 1010.1
20260510051037 10 190 0.0 3.2 0.00 0.23 0.00 93 1010.2
20260510050540 10 188 0.0 3.2 0.00 0.23 0.00 92 1010.3
20260510050037 10 187 0.0 1.6 0.00 0.23 0.00 92 1010.4
20260510045536 10 183 0.0 0.0 0.00 0.23 0.00 91 1010.4
20260510045035 11 194 0.0 0.0 0.00 0.23 0.00 92 1010.4
20260510044536 11 195 0.0 0.0 0.00 0.23 0.00 92 1010.3
20260510044038 11 196 0.0 0.0 0.00 0.23 0.00 92 1010.3
20260510043534 11 196 0.0 1.6 0.00 0.23 0.00 93 1010.3
20260510043034 11 196 0.0 1.6 0.00 0.23 0.00 93 1010.3
20260510042534 11 196 0.0 4.8 0.00 0.23 0.00 93 1010.3
20260510042034 11 196 0.0 4.8 0.00 0.23 0.00 93 1010.3
20260510041531 11 196 0.0 3.2 0.00 0.23 0.00 92 1010.4
20260510041032 11 196 0.0 3.2 0.00 0.23 0.00 93 1010.4
20260510040531 11 196 0.0 3.2 0.00 0.23 0.00 93 1010.4
20260510040034 11 196 0.0 3.2 0.00 0.23 0.00 93 1010.4
20260510035530 11 196 0.0 1.6 0.00 0.23 0.23 93 1010.4
20260510035032 11 195 0.0 3.2 0.00 0.23 0.23 92 1010.4
20260510034529 11 194 0.0 3.2 0.00 0.23 0.23 93 1010.5
20260510034029 10 189 0.0 0.0 0.00 0.23 0.23 92 1010.4
20260510033529 10 186 0.0 0.0 0.00 0.23 0.23 91 1010.4
20260510033029 10 188 0.0 0.0 0.00 0.23 0.23 91 1010.4
20260510032528 10 186 0.0 1.6 0.00 0.23 0.23 91 1010.4
20260510032028 10 184 0.0 1.6 0.00 0.23 0.23 91 1010.5
20260510031539 11 184 0.0 0.0 0.00 0.23 0.23 90 1010.5
20260510031028 11 184 0.0 0.0 0.00 0.23 0.23 90 1010.6
20260510030526 11 181 0.0 0.0 0.00 0.23 0.23 90 1010.5
20260510030026 11 184 0.0 0.0 0.00 0.23 0.23 90 1010.6
20260510025525 11 181 0.0 0.0 0.00 0.23 0.23 89 1010.5
20260510025025 11 187 0.0 0.0 0.00 0.23 0.23 89 1010.4
20260510024535 11 188 0.0 0.0 0.00 0.23 0.23 89 1010.4
20260510024124 11 190 0.0 0.0 0.00 0.23 0.23 89 1010.3
20260510023524 11 190 0.0 3.2 0.00 0.23 0.23 90 1010.3
20260510023024 11 190 0.0 3.2 0.00 0.23 0.23 90 1010.2
20260510022527 11 186 0.0 1.6 0.00 0.23 0.23 89 1010.0
20260510022024 11 186 0.0 0.0 0.00 0.23 0.23 88 1009.9
20260510021525 11 190 0.0 0.0 0.00 0.23 0.23 88 1010.1
20260510021022 12 188 0.0 0.0 0.00 0.23 0.23 87 1010.1
20260510020522 12 182 0.0 1.6 0.00 0.23 0.23 88 1010.1
20260510020022 12 177 0.0 1.6 0.00 0.23 0.23 87 1010.1
20260510015521 12 360 0.0 1.6 0.00 0.23 0.23 87 1010.0
20260510015021 12 360 0.0 1.6 0.00 0.23 0.23 87 1010.0
20260510014521 12 360 0.0 1.6 0.00 0.23 0.23 86 1009.9
20260510014022 12 177 0.0 0.0 0.00 0.23 0.23 86 1009.9
20260510013522 12 177 0.0 0.0 0.00 0.23 0.23 86 1009.8
20260510013021 12 179 0.0 0.0 0.00 0.23 0.23 85 1009.8
20260510012521 12 175 0.0 0.0 0.00 0.23 0.23 84 1009.8
20260510012021 12 360 0.0 0.0 0.00 0.23 0.23 84 1009.7
20260510011533 13 360 0.0 0.0 0.00 0.23 0.23 83 1009.7
20260510011019 13 360 0.0 0.0 0.00 0.23 0.23 83 1009.6
20260510010520 13 360 0.0 0.0 0.00 0.23 0.23 82 1009.4
20260510010020 13 360 0.0 0.0 0.00 0.23 0.23 81 1009.3
20260510005520 14 360 0.0 0.0 0.00 0.23 0.23 80 1009.3
20260510005020 14 360 0.0 0.0 0.00 0.23 0.23 79 1009.2
20260510004520 15 360 0.0 0.0 0.00 0.23 0.23 78 1009.2
20260510004021 15 360 0.0 0.0 0.00 0.23 0.23 77 1009.2
20260510003519 15 360 0.0 3.2 0.00 0.23 0.23 76 1009.1
20260510003046 15 360 0.0 3.2 0.00 0.23 0.23 76 1009.2
20260510002524 15 360 0.0 1.6 0.00 0.23 0.23 75 1009.1
20260510002019 15 360 0.0 3.2 0.00 0.23 0.23 75 1009.1
20260510001518 15 360 0.0 3.2 0.00 0.23 0.23 74 1009.0
20260510001019 16 360 0.0 3.2 0.00 0.23 0.23 73 1008.9
20260510000519 16 360 0.0 3.2 0.00 0.23 0.23 73 1008.9
20260510000021 16 360 0.0 6.4 0.00 0.23 0.23 73 1008.8
20260509235521 16 360 0.0 6.4 0.00 0.23 0.23 73 1008.8
20260509235018 16 360 0.0 3.2 0.00 0.23 0.23 72 1008.7
20260509234527 16 360 0.0 1.6 0.00 0.23 0.23 72 1008.8
20260509234018 16 360 0.0 4.8 0.00 0.23 0.23 71 1008.8
20260509233517 16 360 0.0 8.0 0.00 0.23 0.23 71 1008.7
20260509233022 16 360 1.6 8.0 0.00 0.23 0.23 70 1008.8
20260509232521 16 360 1.6 6.4 0.00 0.23 0.23 70 1008.7
20260509232018 16 360 1.6 4.8 0.00 0.23 0.23 70 1008.7
20260509231528 17 360 0.0 3.2 0.00 0.23 0.23 71 1008.7
20260509231019 17 360 0.0 6.4 0.00 0.23 0.23 71 1008.7
20260509230516 17 360 1.6 6.4 0.00 0.23 0.23 71 1008.7
20260509230023 17 360 0.0 4.8 0.00 0.23 0.23 72 1008.8
20260509225517 17 360 1.6 6.4 0.00 0.23 0.23 72 1008.8
20260509225016 17 360 1.6 6.4 0.00 0.23 0.23 72 1008.8
20260509224518 17 360 1.6 4.8 0.00 0.23 0.23 72 1008.8
20260509224015 17 360 1.6 4.8 0.00 0.23 0.23 72 1008.8
20260509223516 17 360 0.0 3.2 0.00 0.23 0.23 70 1008.9
20260509223016 17 360 0.0 3.2 0.00 0.23 0.23 70 1008.9
20260509222518 17 360 0.0 6.4 0.00 0.23 0.23 70 1008.9
20260509222015 17 360 3.2 6.4 0.00 0.23 0.23 69 1008.8
20260509221515 17 360 3.2 6.4 0.00 0.23 0.23 69 1008.8
20260509221015 17 360 3.2 6.4 0.00 0.23 0.23 68 1008.8
20260509220514 17 360 1.6 6.4 0.00 0.23 0.23 68 1008.8
20260509220014 17 360 1.6 6.4 0.00 0.23 0.23 68 1008.9
20260509215513 17 360 1.6 6.4 0.00 0.23 0.23 68 1008.8
20260509215013 17 360 1.6 6.4 0.00 0.23 0.23 68 1008.9
20260509214511 17 360 0.0 4.8 0.00 0.23 0.23 67 1008.9
20260509214012 17 360 1.6 4.8 0.00 0.23 0.23 66 1009.0
20260509213516 17 360 0.0 4.8 0.00 0.23 0.23 67 1009.1
20260509213012 17 360 0.0 6.4 0.00 0.23 0.23 68 1009.1
20260509212511 17 360 3.2 6.4 0.00 0.23 0.23 67 1009.2
20260509212013 17 360 0.0 4.8 0.00 0.23 0.23 68 1009.3
20260509211510 17 360 0.0 4.8 0.00 0.23 0.23 67 1009.3
20260509211010 17 360 0.0 4.8 0.00 0.23 0.23 67 1009.3
20260509210511 17 360 0.0 1.6 0.00 0.23 0.23 69 1009.4
20260509210014 17 360 0.0 3.2 0.00 0.23 0.23 68 1009.4
20260509205510 17 360 0.0 4.8 0.00 0.23 0.23 67 1009.2
20260509205010 17 360 1.6 6.4 0.00 0.23 0.23 67 1009.1
20260509204510 17 360 1.6 6.4 0.00 0.23 0.23 68 1009.1
20260509204012 17 360 0.0 4.8 0.00 0.23 0.23 67 1009.1
20260509203510 17 360 1.6 4.8 0.00 0.23 0.23 68 1009.2
20260509203009 17 360 0.0 1.6 0.00 0.23 0.23 66 1009.1
20260509202509 17 360 0.0 3.2 0.00 0.23 0.23 70 1009.2
20260509202010 17 360 0.0 4.8 0.00 0.23 0.23 66 1009.1
20260509201509 17 360 0.0 4.8 0.00 0.23 0.23 68 1009.3
20260509201007 17 360 0.0 3.2 0.00 0.23 0.23 67 1009.3
20260509200507 17 360 0.0 3.2 0.00 0.23 0.23 68 1009.3
20260509200008 17 360 0.0 4.8 0.00 0.23 0.23 69 1009.4
20260509195508 17 360 1.6 6.4 0.00 0.23 0.23 67 1009.3
20260509195005 17 360 3.2 6.4 0.00 0.23 0.23 68 1009.4
20260509194510 17 232 0.0 6.4 0.00 0.23 0.23 67 1009.4
20260509194006 17 232 1.6 6.4 0.00 0.23 0.23 66 1009.5
20260509193504 17 232 3.2 6.4 0.00 0.23 0.23 64 1009.4
20260509193005 17 178 1.6 6.4 0.00 0.23 0.23 65 1009.6
20260509192503 17 179 1.6 6.4 0.00 0.23 0.23 71 1009.7
20260509192003 17 178 1.6 3.2 0.00 0.23 0.23 69 1009.8
20260509191503 16 178 1.6 4.8 0.00 0.23 0.23 68 1009.9
20260509191003 17 360 3.2 4.8 0.00 0.23 0.23 70 1010.0
20260509190603 16 159 0.0 4.8 0.00 0.23 0.23 75 1009.9
20260509190100 16 162 0.0 4.8 0.00 0.23 0.23 73 1009.8
20260509185559 16 165 0.0 6.4 0.00 0.23 0.23 74 1009.9
20260509185059 16 165 0.0 6.4 0.00 0.23 0.23 72 1009.9
20260509184602 16 163 1.6 8.0 0.00 0.23 0.23 74 1010.0
20260509184057 16 59 3.2 8.0 0.00 0.23 0.23 75 1010.1
20260509183559 16 58 3.2 8.0 0.00 0.23 0.23 75 1010.1
20260509183135 15 171 1.6 4.8 0.00 0.23 0.23 78 1010.3
20260509182554 15 171 1.6 6.4 0.00 0.23 0.23 78 1010.4
20260509182053 15 171 1.6 6.4 0.00 0.23 0.23 77 1010.5
20260509181608 15 173 1.6 8.0 0.00 0.23 0.23 79 1010.7
20260509181052 15 175 3.2 8.0 0.00 0.23 0.23 79 1010.9
20260509180552 15 121 0.0 3.2 0.00 0.23 0.23 82 1010.8
20260509180052 14 121 0.0 4.8 0.00 0.23 0.23 81 1010.8
20260509175550 14 121 1.6 4.8 0.00 0.23 0.23 81 1011.0
20260509175051 14 121 0.0 4.8 0.00 0.23 0.23 82 1011.0
20260509174553 13 121 0.0 4.8 0.00 0.23 0.23 82 1011.0
20260509174050 13 119 0.0 3.2 0.00 0.23 0.23 82 1010.9
20260509173554 13 119 0.0 6.4 0.00 0.23 0.23 81 1010.9
20260509173056 13 118 1.6 6.4 0.00 0.23 0.23 81 1010.9
20260509172550 13 175 1.6 4.8 0.00 0.23 0.23 81 1010.9
20260509172051 13 178 0.0 4.8 0.00 0.23 0.23 83 1010.9
20260509171552 13 177 0.0 6.4 0.00 0.23 0.23 83 1010.9
20260509171052 13 174 1.6 6.4 0.00 0.23 0.23 81 1011.1
20260509170549 13 174 1.6 6.4 0.00 0.23 0.23 80 1011.2
20260509170053 13 174 0.0 3.2 0.00 0.23 0.23 82 1011.1
20260509165549 13 174 0.0 3.2 0.00 0.23 0.23 82 1011.1
20260509165049 13 174 0.0 3.2 0.00 0.23 0.23 83 1011.1
20260509164556 13 173 0.0 3.2 0.00 0.23 0.23 81 1011.1
20260509164048 13 173 0.0 4.8 0.00 0.23 0.23 82 1011.1
20260509163548 13 172 0.0 4.8 0.00 0.23 0.23 83 1011.2
20260509163049 13 177 0.0 3.2 0.00 0.23 0.23 84 1011.4
20260509162548 13 176 0.0 4.8 0.00 0.23 0.23 84 1011.4
20260509162048 13 177 0.0 6.4 0.00 0.23 0.23 83 1011.4
20260509161547 13 176 0.0 8.0 0.00 0.23 0.23 87 1011.4
20260509161047 13 176 3.2 8.0 0.03 0.23 0.23 87 1011.5
20260509160547 13 196 1.6 9.7 0.03 0.23 0.23 89 1011.5
20260509160047 13 160 1.6 8.0 0.05 0.23 0.23 88 1011.4
20260509155546 13 190 3.2 8.0 0.05 0.23 0.23 88 1011.6
20260509155046 13 194 3.2 8.0 0.10 0.23 0.23 89 1011.6
20260509154553 12 190 1.6 6.4 0.13 0.23 0.23 88 1011.5
20260509154047 12 190 0.0 3.2 0.18 0.23 0.23 88 1011.2
20260509153546 12 190 1.6 3.2 0.20 0.23 0.23 88 1011.2
20260509153046 12 190 0.0 3.2 0.20 0.23 0.23 88 1011.0
20260509152549 12 191 0.0 3.2 0.23 0.23 0.23 89 1011.2
20260509152046 12 191 0.0 3.2 0.23 0.23 0.23 89 1011.3
20260509151546 12 190 0.0 3.2 0.23 0.23 0.23 88 1011.4
20260509151044 12 191 0.0 3.2 0.20 0.20 0.20 87 1011.4
20260509150543 12 191 0.0 1.6 0.20 0.20 0.20 85 1011.4
20260509150043 12 191 0.0 1.6 0.18 0.18 0.18 84 1011.5
20260509145543 13 191 0.0 1.6 0.15 0.15 0.15 84 1011.5
20260509145043 13 191 0.0 0.0 0.13 0.13 0.13 83 1011.6
20260509144542 13 189 0.0 0.0 0.10 0.10 0.10 80 1011.7
20260509144041 13 190 0.0 1.6 0.05 0.05 0.05 78 1011.8
20260509143541 13 192 0.0 1.6 0.03 0.03 0.03 78 1011.8
20260509143042 13 192 0.0 3.2 0.00 0.00 0.00 76 1011.9
20260509142539 13 191 0.0 9.7 0.00 0.00 0.00 75 1011.9
20260509142041 13 188 1.6 9.7 0.00 0.00 0.00 72 1011.9
20260509141539 14 199 0.0 6.4 0.00 0.00 0.00 71 1011.8
20260509141038 14 198 1.6 6.4 0.00 0.00 0.00 69 1011.7
20260509140537 14 196 0.0 3.2 0.00 0.00 0.00 68 1011.7
20260509140041 14 197 0.0 8.0 0.00 0.00 0.00 66 1011.5
20260509135540 14 197 1.6 8.0 0.00 0.00 0.00 66 1011.5
20260509135038 14 204 3.2 6.4 0.00 0.00 0.00 65 1011.4
20260509134538 14 207 1.6 6.4 0.00 0.00 0.00 67 1011.3
20260509134036 14 212 1.6 4.8 0.00 0.00 0.00 67 1011.3
20260509133536 14 213 1.6 4.8 0.00 0.00 0.00 66 1011.2
20260509133035 14 215 0.0 4.8 0.00 0.00 0.00 66 1010.9
20260509132534 13 216 0.0 4.8 0.00 0.00 0.00 66 1010.9
20260509132033 13 209 1.6 8.0 0.00 0.00 0.00 66 1011.0
20260509131532 13 209 1.6 8.0 0.00 0.00 0.00 65 1011.0
20260509131032 13 194 3.2 8.0 0.00 0.00 0.00 64 1010.9
20260509130534 13 188 1.6 8.0 0.00 0.00 0.00 66 1011.1
20260509130031 13 229 0.0 6.4 0.00 0.00 0.00 65 1011.0
20260509125530 13 229 0.0 6.4 0.00 0.00 0.00 66 1010.9
20260509125032 13 221 0.0 6.4 0.00 0.00 0.00 66 1011.0
20260509124530 13 224 1.6 4.8 0.00 0.00 0.00 66 1011.0
20260509124030 13 224 0.0 3.2 0.00 0.00 0.00 66 1010.8
20260509123529 13 225 1.6 4.8 0.00 0.00 0.00 66 1010.9
20260509123030 13 225 0.0 4.8 0.00 0.00 0.00 66 1011.0
20260509122529 13 225 0.0 4.8 0.00 0.00 0.00 66 1011.0
20260509122029 13 225 0.0 4.8 0.00 0.00 0.00 66 1011.0
20260509121533 13 225 0.0 6.4 0.00 0.00 0.00 66 1011.1
20260509121028 13 226 1.6 8.0 0.00 0.00 0.00 66 1011.1
20260509120529 13 232 3.2 8.0 0.00 0.00 0.00 67 1011.2
20260509120029 13 132 0.0 4.8 0.00 0.00 0.00 67 1010.9
20260509115528 13 84 0.0 3.2 0.00 0.00 0.00 68 1011.0
20260509115028 13 82 0.0 3.2 0.00 0.00 0.00 68 1011.0
20260509114528 13 82 0.0 3.2 0.00 0.00 0.00 67 1010.9
20260509114027 13 82 0.0 1.6 0.00 0.00 0.00 66 1011.0
20260509113530 13 82 0.0 3.2 0.00 0.00 0.00 66 1010.6
20260509113029 13 238 0.0 3.2 0.00 0.00 0.00 66 1010.5
20260509112527 13 238 0.0 1.6 0.00 0.00 0.00 67 1010.4
20260509112027 12 238 0.0 3.2 0.00 0.00 0.00 66 1010.4
20260509111528 12 238 0.0 3.2 0.00 0.00 0.00 66 1010.5
20260509111027 12 238 0.0 3.2 0.00 0.00 0.00 66 1010.5
20260509110526 12 238 0.0 3.2 0.00 0.00 0.00 66 1010.4
20260509110028 12 238 0.0 4.8 0.00 0.00 0.00 66 1010.4
20260509105528 12 239 1.6 4.8 0.00 0.00 0.00 66 1010.5
20260509105026 12 240 1.6 8.0 0.00 0.00 0.00 66 1010.4
20260509104535 12 244 0.0 8.0 0.00 0.00 0.00 66 1010.3
20260509104027 12 209 0.0 4.8 0.00 0.00 0.00 66 1010.3
20260509103525 12 209 0.0 1.6 0.00 0.00 0.00 67 1010.2
20260509103025 12 209 0.0 1.6 0.00 0.00 0.00 66 1010.3
20260509102525 12 209 0.0 3.2 0.00 0.00 0.00 66 1010.4
20260509102026 12 209 0.0 3.2 0.00 0.00 0.00 66 1010.3
20260509101530 12 209 1.6 3.2 0.00 0.00 0.00 66 1010.3
20260509101026 12 209 0.0 1.6 0.00 0.00 0.00 66 1010.3
20260509100524 12 209 0.0 1.6 0.00 0.00 0.00 66 1010.3
20260509100024 12 209 0.0 1.6 0.00 0.00 0.00 66 1010.3
20260509095524 12 209 0.0 3.2 0.00 0.00 0.00 66 1010.3
20260509095025 12 209 0.0 4.8 0.00 0.00 0.00 66 1010.2
20260509094523 12 209 0.0 4.8 0.00 0.00 0.00 66 1010.3
20260509094025 12 209 0.0 3.2 0.00 0.00 0.00 66 1010.2
20260509093526 12 209 0.0 4.8 0.00 0.00 0.00 65 1010.2
20260509093035 12 209 0.0 4.8 0.00 0.00 0.00 65 1010.3
20260509092523 12 208 0.0 3.2 0.00 0.00 0.00 66 1010.3
20260509092022 12 208 0.0 3.2 0.00 0.00 0.00 66 1010.4
20260509091522 12 208 0.0 4.8 0.00 0.00 0.00 66 1010.4
20260509091023 12 208 0.0 4.8 0.00 0.00 0.00 66 1010.4
20260509090523 12 208 0.0 4.8 0.00 0.00 0.00 65 1010.4
20260509090021 12 208 0.0 4.8 0.00 0.00 0.00 66 1010.6
20260509085525 12 209 1.6 4.8 0.00 0.00 0.00 65 1010.5
20260509085020 12 209 0.0 8.0 0.00 0.00 0.00 66 1010.6
20260509084530 12 200 1.6 6.4 0.00 0.00 0.00 65 1010.6
20260509084018 12 200 0.0 4.8 0.00 0.00 0.00 66 1010.6
20260509083518 12 200 1.6 6.4 0.00 0.00 0.00 66 1010.7
20260509083022 12 200 1.6 6.4 0.00 0.00 0.00 68 1010.8
20260509082520 12 196 1.6 6.4 0.00 0.00 0.00 69 1010.8
20260509082018 12 196 0.0 1.6 0.00 0.00 0.00 69 1010.9
20260509081533 12 196 0.0 4.8 0.00 0.00 0.00 69 1010.8
20260509081018 12 196 0.0 4.8 0.00 0.00 0.00 69 1010.8
20260509080517 12 196 0.0 3.2 0.00 0.00 0.00 70 1010.8
20260509080028 12 196 0.0 1.6 0.00 0.00 0.00 72 1010.8
20260509075521 12 196 0.0 0.0 0.00 0.00 0.00 72 1010.8
20260509075017 12 196 0.0 0.0 0.00 0.00 0.00 70 1010.7
20260509074517 12 196 0.0 0.0 0.00 0.00 0.00 69 1010.7
20260509074018 12 196 0.0 0.0 0.00 0.00 0.00 69 1010.7
20260509073516 12 196 0.0 0.0 0.00 0.00 0.00 68 1010.7
20260509073017 12 196 0.0 1.6 0.00 0.00 0.00 69 1010.7
20260509072516 12 197 0.0 3.2 0.00 0.00 0.00 67 1010.7
20260509072016 12 197 0.0 4.8 0.00 0.00 0.00 67 1010.8
20260509071515 12 196 0.0 4.8 0.00 0.00 0.00 68 1010.7
20260509071015 12 196 0.0 6.4 0.00 0.00 0.00 68 1010.9
20260509070515 12 188 1.6 6.4 0.00 0.00 0.00 69 1010.9
20260509070017 12 189 0.0 0.0 0.00 0.00 0.00 69 1010.8
20260509065515 12 189 0.0 0.0 0.00 0.00 0.00 69 1010.9
20260509065015 12 189 0.0 0.0 0.00 0.00 0.00 69 1010.9
20260509064515 13 189 0.0 3.2 0.00 0.00 0.00 68 1011.0
20260509064014 13 189 0.0 4.8 0.00 0.00 0.00 67 1011.1
20260509063514 13 189 0.0 4.8 0.00 0.00 0.00 67 1011.0
20260509063014 13 189 0.0 3.2 0.00 0.00 0.00 67 1011.0
20260509062514 13 189 0.0 4.8 0.00 0.00 0.00 67 1011.0
20260509062017 13 188 1.6 9.7 0.00 0.00 0.00 67 1010.8
20260509061516 13 188 3.2 9.7 0.00 0.00 0.00 67 1010.7
20260509061018 13 194 1.6 8.0 0.00 0.00 0.00 67 1010.7
20260509060515 13 198 1.6 8.0 0.00 0.00 0.00 68 1010.7
20260509060012 13 199 1.6 6.4 0.00 0.00 0.00 67 1010.7
20260509055513 13 198 1.6 9.7 0.00 0.00 0.00 68 1010.9
20260509055011 13 199 3.2 9.7 0.00 0.00 0.00 68 1011.0
20260509054509 13 169 3.2 9.7 0.00 0.00 0.00 67 1011.2
20260509054009 13 170 1.6 6.4 0.00 0.00 0.00 67 1011.2
20260509053508 13 175 1.6 4.8 0.00 0.00 0.00 67 1011.3
20260509053018 13 158 0.0 6.4 0.00 0.00 0.00 67 1011.4
20260509052507 12 156 1.6 6.4 0.00 0.00 0.00 67 1011.5
20260509052007 12 135 0.0 4.8 0.00 0.00 0.00 66 1011.7